Weather History for Morgantown, WV

Change the Weather History Date:

Monday, April 15, 2013

  Actual Average Record
Temperature  
Mean Temperature 62 °F 53 °F  
Max Temperature 67 °F 64 °F 86 °F (1993)
Min Temperature 56 °F 42 °F 22 °F (1957)
Degree Days  
Heating Degree Days 3 13  
Month to date heating degree days 170 225  
Since 1 July heating degree days 4642 4826  
Cooling Degree Days 0 0  
Month to date cooling degree days 21 0  
Year to date cooling degree days 21 2  
Growing Degree Days 12 (Base 50)    
Moisture  
Dew Point 44 °F    
Average Humidity 51    
Maximum Humidity 67    
Minimum Humidity 34    
Precipitation  
Precipitation T in 0.11 in 1.01 in (1983)
Month to date precipitation 0.34 1.76  
Year to date precipitation 7.29 10.82  
Sea Level Pressure  
Sea Level Pressure 30.08 in    
Wind  
Wind Speed 9 mph (SSE)    
Max Wind Speed 20 mph    
Max Gust Speed 25 mph    
Visibility 10 miles    
Events Rain    
T = Trace of Precipitation, MM = Missing Value Source: NWS Daily Summary

Daily Weather History Graph

Daily Weather History Graph

Search for Another Location

Airport:

Trip Planner

Search our weather history database for the weather conditions in past years. The results will help you decide how hot, cold, wet, or windy it might be!

Date:

Astronomy

Apr. 15, 2013 Rise Set
Actual Time 6:41 AM EDT 7:57 PM EDT
Civil Twilight 6:14 AM EDT 8:25 PM EDT
Nautical Twilight 5:40 AM EDT 8:59 PM EDT
Astronomical Twilight 5:05 AM EDT 9:34 PM EDT
Moon 10:07 AM EDT (4/15) 12:08 AM EDT (4/15)
Length of Visible Light 14h 11m
Length of Day
13h 16m
Waxing Crescent, 24% of the Moon is Illuminated
Apr 15
Waxing Crescent
Apr 18
First Quarter
Apr 25
Full
May 2
Last Quarter
May 9
New

Hourly Weather History & Observations

Time (EDT) Temp. Dew Point Humidity Pressure Visibility Wind Dir Wind Speed Gust Speed Precip Events Conditions
12:53 AM 64.0 °F 36.0 °F 35% 30.01 in 10.0 mi SSE 9.2 mph 18.4 mph N/A   Overcast
1:53 AM 64.0 °F 37.0 °F 37% 30.00 in 10.0 mi SE 8.1 mph - N/A   Mostly Cloudy
2:53 AM 63.0 °F 37.0 °F 38% 29.99 in 10.0 mi SE 13.8 mph 20.7 mph N/A   Overcast
3:53 AM 63.0 °F 37.9 °F 40% 29.99 in 10.0 mi SSE 12.7 mph - N/A   Overcast
4:53 AM 62.1 °F 37.9 °F 41% 30.03 in 10.0 mi SSE 5.8 mph - N/A   Mostly Cloudy
5:53 AM 61.0 °F 39.0 °F 44% 30.05 in 10.0 mi SE 8.1 mph - N/A   Mostly Cloudy
6:53 AM 59.0 °F 39.9 °F 49% 30.08 in 10.0 mi Calm Calm - N/A   Scattered Clouds
7:53 AM 60.1 °F 45.0 °F 57% 30.09 in 10.0 mi SSE 11.5 mph - N/A   Mostly Cloudy
8:53 AM 60.1 °F 45.0 °F 57% 30.08 in 10.0 mi SSE 9.2 mph - N/A   Overcast
9:53 AM 61.0 °F 44.1 °F 54% 30.09 in 10.0 mi South 10.4 mph 18.4 mph N/A   Overcast
10:53 AM 60.1 °F 48.0 °F 64% 30.11 in 8.0 mi SSE 6.9 mph 16.1 mph 0.00 in Rain Light Rain
11:53 AM 61.0 °F 46.9 °F 60% 30.11 in 10.0 mi SSE 5.8 mph - 0.00 in   Overcast
12:53 PM 62.1 °F 46.0 °F 56% 30.11 in 10.0 mi SSE 10.4 mph 16.1 mph N/A   Overcast
1:53 PM 63.0 °F 46.9 °F 56% 30.10 in 10.0 mi SSE 11.5 mph 16.1 mph N/A   Overcast
2:53 PM 63.0 °F 46.9 °F 56% 30.11 in 10.0 mi SSE 11.5 mph 18.4 mph N/A   Overcast
3:53 PM 64.0 °F 46.0 °F 52% 30.10 in 10.0 mi South 12.7 mph - N/A   Overcast
4:53 PM 66.0 °F 46.0 °F 48% 30.08 in 10.0 mi SSE 12.7 mph 19.6 mph N/A   Mostly Cloudy
5:53 PM 66.0 °F 46.0 °F 48% 30.09 in 10.0 mi SSE 13.8 mph - N/A   Overcast
6:53 PM 66.0 °F 46.0 °F 48% 30.10 in 10.0 mi SSE 13.8 mph - N/A   Overcast
7:53 PM 63.0 °F 45.0 °F 52% 30.09 in 10.0 mi SSE 8.1 mph - N/A   Partly Cloudy
8:53 PM 62.1 °F 45.0 °F 53% 30.12 in 10.0 mi SSE 11.5 mph - N/A   Clear
9:53 PM 59.0 °F 46.0 °F 62% 30.13 in 10.0 mi SSE 6.9 mph - N/A   Clear
10:53 PM 57.9 °F 46.0 °F 65% 30.14 in 10.0 mi South 4.6 mph - N/A   Clear
11:53 PM 57.0 °F 46.9 °F 69% 30.12 in 10.0 mi SSE 5.8 mph - N/A   Clear